Terug naar catalogus

OPS 9345

IDSCS 23

ActiefMilitairMEO
NORAD 3288·PAYLOAD·🇺🇸 United States

Gelanceerd Jun 13, 1968 vanaf Cape Canaveral Space Force Station

Loading…

Volgende Passages (komende 24 uur)

TLE

VersSource: Space-Track

Epoch: Sep 11, 2026, 07:59 UTC

1 03288U 68050E   26254.33308763 -.00000096  00000-0  00000-0 0  9998
2 03288   7.2772  51.9391 0036094 146.5772 222.5577  1.07478363140172

Volg OPS 9345 in realtime met AllMySat

Download on the App Store